Weather History for Venice, Italy

Change the Weather History Date:

Thursday, October 24, 2013

  Actual Average Record
Temperature  
Mean Temperature 64 °F -  
Max Temperature 69 °F 55 °F 73 °F (2006)
Min Temperature 60 °F 42 °F 41 °F (2003)
Growing Degree Days 14 (Base 50)    
Moisture  
Dew Point 61 °F    
Average Humidity 88    
Maximum Humidity 100    
Minimum Humidity 68    
Precipitation  
Precipitation 0.00 in 0.11 in - ()
Sea Level Pressure  
Sea Level Pressure 30.11 in    
Wind  
Wind Speed 4 mph ()    
Max Wind Speed 10 mph    
Max Gust Speed -    
Visibility 5.1 miles    
Events Rain    
Averages and records for this station are not official NWS values.
T = Trace of Precipitation, MM = Missing Value Source: Averaged Metar Reports

Daily Weather History Graph

Daily Weather History Graph

Search for Another Location

Airport:

Trip Planner

Search our weather history database for the weather conditions in past years. The results will help you decide how hot, cold, wet, or windy it might be!

Date:

Astronomy

Oct. 24, 2013 Rise Set
Actual Time 7:38 AM CEST 6:09 PM CEST
Civil Twilight 7:08 AM CEST 6:40 PM CEST
Nautical Twilight 6:34 AM CEST 7:14 PM CEST
Astronomical Twilight 5:59 AM CEST 7:48 PM CEST
Moon 10:12 PM CEST (10/24) 12:34 PM CEST (10/24)
Length of Visible Light 11h 31m
Length of Day
10h 30m
Waning Gibbous, 73% of the Moon is Illuminated
Oct 24
Waning Gibbous
Oct 27
Last Quarter
Nov 3
New
Nov 10
First Quarter
Nov 17
Full

Hourly Weather History & Observations

Time (CEST) Temp. Dew Point Humidity Pressure Visibility Wind Dir Wind Speed Gust Speed Precip Events Conditions
12:20 AM 64.4 °F 62.6 °F 94% 30.06 in 3.1 mi East 4.6 mph - N/A   Drizzle
12:50 AM 64.4 °F 62.6 °F 94% 30.06 in 2.2 mi Variable 3.5 mph - N/A   Drizzle
1:20 AM 64.4 °F 62.6 °F 94% 30.06 in 1.6 mi Variable 3.5 mph - N/A   Drizzle
1:50 AM 64.4 °F 62.6 °F 94% 30.06 in 1.6 mi SSE 4.6 mph - N/A   Mostly Cloudy
2:20 AM 64.4 °F 62.6 °F 94% 30.06 in 1.6 mi South 6.9 mph - N/A   Mostly Cloudy
2:50 AM 64.4 °F 62.6 °F 94% 30.06 in 1.9 mi SSE 10.4 mph - N/A Rain Rain
3:20 AM 64.4 °F 62.6 °F 94% 30.06 in 2.5 mi South 10.4 mph - N/A Rain Rain
3:50 AM 64.4 °F 62.6 °F 94% 30.06 in 1.9 mi South 10.4 mph - N/A Rain Rain
4:20 AM 62.6 °F 60.8 °F 94% 30.06 in 4.3 mi SSE 8.1 mph - N/A   Mostly Cloudy
4:50 AM 62.6 °F 60.8 °F 94% 30.06 in 4.3 mi SSE 9.2 mph - N/A   Mostly Cloudy
5:20 AM 64.4 °F 62.6 °F 94% 30.06 in 5.0 mi SSE 8.1 mph - N/A   Mostly Cloudy
5:50 AM 64.4 °F 60.8 °F 88% 30.06 in 5.0 mi SSE 5.8 mph - N/A   Mostly Cloudy
6:20 AM 64.4 °F 62.6 °F 94% 30.09 in 5.0 mi Variable 3.5 mph - N/A   Mostly Cloudy
6:50 AM 64.4 °F 62.6 °F 94% 30.06 in 5.0 mi Variable 1.2 mph - N/A   Mostly Cloudy
7:20 AM 62.6 °F 60.8 °F 94% 30.09 in 5.0 mi Calm Calm - N/A   Mostly Cloudy
7:50 AM 62.6 °F 60.8 °F 94% 30.09 in 5.6 mi Variable 1.2 mph - N/A   Mostly Cloudy
8:20 AM 62.6 °F 60.8 °F 94% 30.09 in 5.6 mi Variable 2.3 mph - N/A   Mostly Cloudy
8:50 AM 62.6 °F 60.8 °F 94% 30.09 in 5.6 mi Variable 1.2 mph - N/A   Mostly Cloudy
9:20 AM 64.4 °F 62.6 °F 94% 30.09 in 5.6 mi Variable 2.3 mph - N/A   Mostly Cloudy
9:50 AM 62.6 °F 60.8 °F 94% 30.12 in 5.6 mi Calm Calm - N/A   Mostly Cloudy
10:20 AM 64.4 °F 62.6 °F 94% 30.12 in 5.6 mi Calm Calm - N/A   Mostly Cloudy
10:50 AM 64.4 °F 62.6 °F 94% 30.15 in 6.2 mi Calm Calm - N/A   Mostly Cloudy
11:20 AM 64.4 °F 60.8 °F 88% 30.15 in 6.2 mi Calm Calm - N/A   Mostly Cloudy
11:50 AM 66.2 °F 60.8 °F 83% 30.15 in 6.2 mi Variable 1.2 mph - N/A   Mostly Cloudy
12:20 PM 64.4 °F 60.8 °F 88% 30.15 in 6.2 mi Calm Calm - N/A   Mostly Cloudy
12:50 PM 66.2 °F 59.0 °F 78% 30.15 in 6.2 mi Variable 1.2 mph - N/A   Mostly Cloudy
1:20 PM 68.0 °F 60.8 °F 78% 30.15 in 6.2 mi Calm Calm - N/A   Mostly Cloudy
1:50 PM 66.2 °F 57.2 °F 73% 30.12 in 6.2 mi Variable 2.3 mph - N/A   Mostly Cloudy
2:20 PM 68.0 °F 59.0 °F 73% 30.12 in 6.2 mi Variable 2.3 mph - N/A   Scattered Clouds
2:50 PM 69.8 °F 59.0 °F 68% 30.12 in 6.2 mi Variable 1.2 mph - N/A   Mostly Cloudy
3:20 PM 68.0 °F 59.0 °F 73% 30.12 in 6.2 mi Variable 1.2 mph - N/A   Mostly Cloudy
3:50 PM 68.0 °F 59.0 °F 73% 30.12 in 6.2 mi Variable 2.3 mph - N/A   Mostly Cloudy
4:20 PM 68.0 °F 60.8 °F 78% 30.12 in 6.2 mi Variable 3.5 mph - N/A   Scattered Clouds
4:50 PM 69.8 °F 60.8 °F 73% 30.12 in 6.2 mi Variable 3.5 mph - N/A   Scattered Clouds
5:20 PM 69.8 °F 60.8 °F 73% 30.12 in 6.2 mi East 4.6 mph - N/A   Scattered Clouds
5:50 PM 66.2 °F 59.0 °F 78% 30.12 in 6.2 mi ESE 4.6 mph - N/A   Scattered Clouds
6:20 PM 66.2 °F 59.0 °F 78% 30.12 in 6.2 mi Variable 3.5 mph - N/A   Scattered Clouds
6:50 PM 64.4 °F 59.0 °F 83% 30.15 in 6.2 mi Variable 3.5 mph - N/A   Scattered Clouds
7:20 PM 64.4 °F 60.8 °F 88% 30.15 in 6.2 mi Variable 3.5 mph - N/A   Scattered Clouds
7:50 PM 64.4 °F 62.6 °F 94% 30.15 in 6.2 mi Variable 1.2 mph - N/A   Partly Cloudy
8:20 PM 64.4 °F 59.0 °F 83% 30.15 in 6.2 mi Calm Calm - N/A   Partly Cloudy
8:50 PM 64.4 °F 62.6 °F 94% 30.15 in 6.2 mi Variable 1.2 mph - N/A   Scattered Clouds
9:20 PM 62.6 °F 59.0 °F 88% 30.18 in 6.2 mi Variable 2.3 mph - N/A   Scattered Clouds
9:50 PM 62.6 °F 59.0 °F 88% 30.18 in 6.2 mi Variable 1.2 mph - N/A   Scattered Clouds
10:20 PM 62.6 °F 60.8 °F 94% 30.18 in 5.6 mi Variable 2.3 mph - N/A   Partly Cloudy
10:50 PM 60.8 °F 59.0 °F 94% 30.18 in 4.3 mi Variable 2.3 mph - N/A   Partly Cloudy
11:20 PM 60.8 °F 60.8 °F 100% 30.18 in 4.3 mi Variable 1.2 mph - N/A   Partly Cloudy
11:50 PM 60.8 °F 59.0 °F 94% 30.18 in 3.7 mi Variable 1.2 mph - N/A   Partly Cloudy